[[{"header":{"parameterUnit":"m.s-1","parameterCategory":1,"la1":30.2991,"la2":30.254,"lo1":-89.0895,"lo2":-89.0444,"dy":0.0017,"dx":0.0017,"nx":28,"ny":28,"refTime":"2025-05-23T03:00:00:Z","depth":0,"parameterNumber":2,"parameterNumberName":"U-component_of_WINDS"},"data":[0,0,0,0,0,0,0,0,0,0,0,0,0,0,0,0,0,0,0,0,0,0,0,0,0,0,0,0,0,0,0,0,0,0,0,0,0,0,0,0,0,0,0,0,0,0,0,0,0,0,0,0,0,0,0,0,0,0,0.5825,0.5826,0,0.5889,0.5889,0.589,0.594,0.594,0.5941,0.5941,0.6008,0.6009,0.6011,0,0,0,0,0,0,0,0,0,0,0,0,0,0.5751,0.5752,0.5825,0.5826,0.5827,0.5889,0.5889,0.589,0.594,0.594,0.5941,0.5941,0.6008,0.6009,0.6011,0,0,0,0,0,0,0,0,0,0,0,0,0,0.5795,0.5752,0.5825,0.5859,0.5863,0.5888,0.5889,0.589,0.5939,0.594,0.5941,0.5941,0.6007,0.6009,0.6011,0.6009,0,0,0.6017,0.6018,0,0,0,0,0,0,0,0,0.5793,0.5798,0.5853,0.5857,0.5861,0.5907,0.5888,0.593,0.5939,0.591,0.5941,0.5942,0.5974,0.5979,0.5989,0.6012,0.6015,0.6017,0.6019,0.602,0.602,0,0,0,0,0,0,0,0.579,0.5796,0.5851,0.5854,0.5859,0.5872,0.5879,0.5896,0.5937,0.5913,0.5917,0.5923,0.5976,0.5987,0.5991,0.6016,0.6017,0.6019,0.602,0.6021,0.6044,0.6043,0,0,0,0,0,0,0.5781,0.5793,0.5848,0.5852,0.5828,0.5873,0.5881,0.5891,0.5937,0.5945,0.5923,0.5925,0.5983,0.5989,0.5994,0.5996,0.602,0.6021,0.6023,0.6044,0.6044,0.6043,0,0,0,0,0,0,0.5779,0.5785,0.5846,0.5824,0.5832,0.5873,0.5885,0.5892,0.5903,0.5945,0.5953,0.5926,0.5984,0.5991,0.6005,0.5999,0.6022,0.6024,0.6045,0.6044,0.6043,0.6,0,0,0,0,0,0,0.5777,0.5784,0.5783,0.5823,0.5833,0.5855,0.5884,0.5893,0.5906,0.591,0.595,0.5957,0.5985,0.6002,0.6007,0.6002,0.6026,0.6046,0.6045,0.6043,0.6002,0.5997,0.5993,0,0,0,0,0,0.5774,0.5768,0.5783,0.5789,0.5833,0.5855,0.5861,0.5892,0.5905,0.5905,0.5932,0.5956,0.5999,0.6003,0.601,0.6005,0.6046,0.6045,0.6044,0.6004,0.5998,0.5994,0,0,0,0,0,0,0.5727,0.5774,0.5791,0.5798,0.5822,0.5863,0.5864,0.5885,0.5907,0.591,0.5949,0.5958,0.5968,0.5988,0.5992,0.6007,0.6026,0.6026,0.5993,0.5988,0.5984,0.598,0.6027,0,0,0,0,0,0.5717,0.5731,0.5772,0.5774,0.5785,0.5822,0.5833,0.5856,0.5882,0.5893,0.5921,0.5947,0.5967,0.5978,0.5999,0.6005,0.6015,0.6005,0.6001,0.5997,0.5997,0.6003,0.6,0.6038,0.6038,0.6038,0,0,0.5698,0.5726,0.5732,0.5766,0.5787,0.5801,0.5831,0.5844,0.5855,0.5895,0.5911,0.5932,0.5964,0.5975,0.5981,0.5992,0.5988,0.5995,0.5992,0.5994,0.6002,0.5998,0.5995,0.6037,0.6038,0.6038,0,0,0.567,0.5691,0.5697,0.5717,0.5749,0.5774,0.5775,0.5813,0.5829,0.5845,0.5876,0.5891,0.5923,0.5945,0.596,0.5942,0.5965,0.5947,0.5926,0.5932,0.5929,0.5926,0.5921,0.5919,0.5947,0.5947,0.5946,0,0.5642,0.5663,0.5697,0.5708,0.5723,0.576,0.5766,0.5785,0.5822,0.5832,0.5843,0.5886,0.5909,0.5927,0.5922,0.5933,0.5937,0.5943,0.5926,0.5924,0.5922,0.5918,0.5916,0.5944,0.5945,0.5945,0.5945,0,0.5628,0.5643,0.5643,0.5678,0.5693,0.5702,0.5737,0.5749,0.577,0.5794,0.5811,0.5841,0.5869,0.5874,0.5895,0.5895,0.5901,0.5919,0.5939,0.5916,0.5912,0.5911,0.5941,0.5942,0.5943,0.5943,0,0,0.5572,0.5625,0.5625,0.5642,0.568,0.5693,0.5704,0.5731,0.574,0.5765,0.5776,0.5804,0.5821,0.5838,0.5862,0.5867,0.5853,0.5885,0.5886,0.5879,0.5856,0.5843,0.584,0.5868,0.5868,0.5868,0.5854,0,0.5551,0.5572,0.5603,0.5615,0.563,0.5666,0.5676,0.5702,0.5725,0.5742,0.5768,0.5787,0.5807,0.5818,0.5825,0.5853,0.5849,0.5854,0.5881,0.5881,0.5872,0.5838,0.5825,0.581,0.5853,0.5852,0.5852,0,0.5529,0.5551,0.5564,0.5603,0.561,0.5619,0.5647,0.5662,0.5692,0.5709,0.5728,0.5755,0.577,0.5788,0.5811,0.5814,0.5827,0.5842,0.5843,0.5847,0.5866,0.5843,0.5806,0.5804,0.585,0.585,0.585,0,0.5488,0.5521,0.5534,0.5547,0.5592,0.5598,0.5617,0.5648,0.5662,0.5687,0.5697,0.5723,0.5737,0.5758,0.5791,0.58,0.5811,0.5831,0.5827,0.5826,0.5828,0.5827,0.5793,0.5834,0.5834,0.5834,0.5834,0,0.5461,0.5468,0.5517,0.5524,0.5534,0.557,0.5579,0.5602,0.5629,0.5643,0.5676,0.5688,0.5731,0.5749,0.5775,0.5791,0.5797,0.5812,0.5819,0.581,0.5808,0.5819,0.5822,0.5834,0.5834,0.5834,0.5834,0,0.5417,0.545,0.5466,0.5508,0.5518,0.5524,0.556,0.557,0.5595,0.5612,0.5619,0.5659,0.5682,0.5717,0.5751,0.5769,0.5781,0.5792,0.577,0.5775,0.5769,0.5769,0.5742,0.574,0.5781,0.578,0.578,0,0.5399,0.5405,0.5447,0.5459,0.5477,0.5494,0.551,0.5546,0.556,0.5596,0.5602,0.5628,0.565,0.5686,0.5719,0.5745,0.5758,0.5746,0.5762,0.5753,0.5759,0.5759,0.5761,0.5743,0.5742,0.5742,0.5741,0,0.5362,0.5378,0.5398,0.5424,0.5441,0.5464,0.5488,0.5496,0.5538,0.5553,0.5576,0.5594,0.5629,0.5654,0.5686,0.5707,0.5732,0.5736,0.5737,0.5727,0.5715,0.5723,0.5761,0.5737,0.5737,0.5737,0.5738,0.5738,0.5331,0.5339,0.537,0.5392,0.5414,0.5436,0.5448,0.5475,0.5495,0.5526,0.5546,0.557,0.5602,0.5646,0.5666,0.5686,0.5696,0.5697,0.5697,0.5697,0.5694,0.5711,0.5692,0.5692,0.5692,0.5692,0.5692,0,0.5298,0.532,0.534,0.5372,0.539,0.5411,0.5439,0.5453,0.5472,0.55,0.5521,0.555,0.5575,0.561,0.5639,0.5648,0.566,0.5654,0.5654,0.5659,0.5683,0.568,0.5644,0.5644,0.5644,0.5644,0.5644,0.5644,0.5283,0.5297,0.5317,0.5344,0.5367,0.5389,0.5404,0.5425,0.5447,0.5477,0.5498,0.5521,0.5552,0.5583,0.5608,0.5618,0.5628,0.5618,0.5632,0.5653,0.5657,0.5662,0.5659,0.562,0.562,0.5607,0.5607,0.5607]},{"header":{"parameterUnit":"m.s-1","parameterCategory":1,"la1":30.2991,"la2":30.254,"lo1":-89.0895,"lo2":-89.0444,"dy":0.0017,"dx":0.0017,"nx":28,"ny":28,"refTime":"2025-05-23T03:00:00:Z","depth":0,"parameterNumber":3,"parameterNumberName":"V-component_of_WINDS"},"data":[0,0,0,0,0,0,0,0,0,0,0,0,0,0,0,0,0,0,0,0,0,0,0,0,0,0,0,0,0,0,0,0,0,0,0,0,0,0,0,0,0,0,0,0,0,0,0,0,0,0,0,0,0,0,0,0,0,0,2.6398,2.6398,0,2.6348,2.6347,2.6347,2.6357,2.6358,2.6359,2.636,2.6303,2.6301,2.6298,0,0,0,0,0,0,0,0,0,0,0,0,0,2.65,2.6498,2.6399,2.6398,2.6397,2.6348,2.6347,2.6347,2.6357,2.6358,2.636,2.6361,2.6304,2.6301,2.6298,0,0,0,0,0,0,0,0,0,0,0,0,0,2.6453,2.6498,2.6399,2.6397,2.6396,2.6348,2.6347,2.6346,2.6357,2.6358,2.636,2.6361,2.6305,2.6301,2.6298,2.6247,0,0,2.6287,2.6285,0,0,0,0,0,0,0,0,2.6456,2.6449,2.6398,2.6397,2.6396,2.6361,2.6362,2.6313,2.6357,2.6372,2.636,2.6362,2.6321,2.6316,2.6303,2.6244,2.6242,2.6286,2.6284,2.6283,2.6282,0,0,0,0,0,0,0,2.6459,2.6452,2.6378,2.6397,2.6396,2.6397,2.6392,2.6353,2.6339,2.6371,2.6371,2.6365,2.632,2.6307,2.6302,2.6241,2.6286,2.6283,2.6281,2.628,2.6137,2.6135,0,0,0,0,0,0,2.6464,2.6454,2.638,2.6377,2.643,2.6394,2.6388,2.637,2.6339,2.6336,2.6364,2.6366,2.6312,2.6306,2.63,2.6238,2.6283,2.6279,2.6277,2.6139,2.6137,2.6135,0,0,0,0,0,0,2.6466,2.6457,2.6382,2.6416,2.6406,2.6391,2.637,2.6369,2.6355,2.6334,2.6331,2.6353,2.6313,2.6305,2.626,2.6236,2.6278,2.6274,2.614,2.6138,2.6136,2.6113,0,0,0,0,0,0,2.6469,2.6458,2.6439,2.6415,2.6405,2.6344,2.6369,2.6367,2.6349,2.6351,2.6323,2.632,2.6313,2.6266,2.6257,2.6232,2.6272,2.6143,2.6139,2.6137,2.6116,2.611,2.6105,0,0,0,0,0,2.6472,2.6434,2.6438,2.6429,2.6381,2.6343,2.6337,2.6332,2.6347,2.6328,2.6315,2.632,2.624,2.6261,2.6251,2.6224,2.6144,2.614,2.6137,2.6118,2.6111,2.6105,0,0,0,0,0,0,2.6453,2.643,2.6435,2.6388,2.6368,2.6345,2.632,2.6325,2.6298,2.6301,2.6294,2.6288,2.6242,2.6229,2.6252,2.6173,2.6194,2.6188,2.6183,2.6177,2.6172,2.6175,2.6269,0,0,0,0,0,2.6444,2.6416,2.6397,2.6357,2.6347,2.6335,2.6319,2.6317,2.6295,2.6286,2.6269,2.6246,2.6216,2.6196,2.6167,2.6115,2.6108,2.6091,2.6086,2.6082,2.6076,2.6048,2.604,2.6123,2.6123,2.6123,0,0,2.6423,2.6407,2.639,2.6353,2.6337,2.6307,2.6328,2.6295,2.6273,2.628,2.6237,2.6224,2.6198,2.615,2.6127,2.6137,2.6052,2.6077,2.6074,2.6071,2.6043,2.6035,2.6028,2.612,2.6121,2.6121,0,0,2.637,2.6356,2.6321,2.6306,2.6282,2.6275,2.6266,2.6243,2.6235,2.6193,2.6198,2.617,2.6118,2.6099,2.6083,2.6024,2.6028,2.6015,2.5986,2.5958,2.5952,2.5946,2.5924,2.5916,2.601,2.6009,2.6009,0,2.6347,2.6304,2.6302,2.627,2.6253,2.6261,2.6224,2.6208,2.6175,2.6163,2.6175,2.611,2.6093,2.604,2.6026,2.6013,2.6002,2.6017,2.5953,2.5947,2.5942,2.5921,2.5913,2.6008,2.6008,2.6008,2.6008,0,2.6276,2.6246,2.6221,2.6191,2.6172,2.6137,2.6129,2.6109,2.611,2.6101,2.6057,2.6037,2.6004,2.5991,2.599,2.5938,2.5945,2.5955,2.5975,2.5932,2.5912,2.5905,2.6006,2.6006,2.6007,2.6007,0,0,2.6208,2.618,2.617,2.6157,2.6132,2.6108,2.6073,2.6043,2.6026,2.6003,2.5973,2.593,2.5939,2.5921,2.5918,2.5893,2.5848,2.5907,2.5906,2.5896,2.5788,2.5779,2.577,2.5851,2.5849,2.5848,2.579,0,2.6153,2.6094,2.6092,2.6038,2.601,2.6017,2.5987,2.5968,2.5959,2.5932,2.5922,2.5891,2.5906,2.5895,2.5871,2.5858,2.5826,2.5863,2.5821,2.582,2.5827,2.576,2.5751,2.5697,2.5782,2.5781,2.578,0,2.608,2.6057,2.6,2.598,2.5968,2.5941,2.5913,2.5889,2.5866,2.5862,2.5842,2.5843,2.5806,2.5829,2.5778,2.5804,2.5787,2.5778,2.5776,2.5771,2.5796,2.5752,2.5679,2.5671,2.5768,2.5769,2.577,0,2.6035,2.599,2.595,2.5939,2.5914,2.5895,2.5883,2.5863,2.5845,2.582,2.5808,2.5779,2.5763,2.5739,2.5732,2.575,2.5681,2.5704,2.5675,2.5675,2.5659,2.5659,2.5581,2.565,2.565,2.565,2.565,0,2.5972,2.5937,2.593,2.5905,2.5866,2.5864,2.5825,2.5814,2.5796,2.5769,2.5773,2.5747,2.5739,2.5711,2.5705,2.5664,2.5656,2.565,2.5649,2.5649,2.565,2.5637,2.564,2.5648,2.5648,2.5649,2.5649,0,2.5915,2.5909,2.5866,2.5847,2.5841,2.5813,2.5796,2.5772,2.5764,2.5729,2.5721,2.5708,2.5676,2.5667,2.5627,2.5623,2.5574,2.5576,2.5582,2.5581,2.5553,2.5555,2.5463,2.545,2.5528,2.5527,2.5526,0,2.5874,2.5848,2.5827,2.581,2.5798,2.577,2.5752,2.5749,2.573,2.5704,2.5682,2.5651,2.5626,2.5573,2.5559,2.5529,2.553,2.55,2.5525,2.5527,2.5529,2.553,2.5527,2.5494,2.5494,2.5493,2.5492,0,2.5804,2.5802,2.5778,2.5752,2.5731,2.571,2.569,2.5675,2.5669,2.5647,2.5615,2.5596,2.5557,2.5525,2.5495,2.5481,2.5485,2.5485,2.5476,2.5476,2.548,2.5477,2.5567,2.5486,2.5487,2.5487,2.5488,2.5488,2.5753,2.573,2.5712,2.5684,2.5669,2.565,2.5627,2.5617,2.5591,2.556,2.5559,2.5524,2.5503,2.5463,2.5448,2.5419,2.5428,2.5416,2.5413,2.541,2.5407,2.5486,2.5414,2.5414,2.5414,2.5414,2.5414,0,2.5681,2.5671,2.5645,2.5618,2.5596,2.5605,2.5583,2.5563,2.5533,2.5514,2.5489,2.5452,2.5422,2.5406,2.5376,2.5356,2.5357,2.5348,2.5349,2.5345,2.5401,2.5411,2.5348,2.5348,2.5348,2.5348,2.5348,2.5348,2.5642,2.5603,2.56,2.5554,2.5543,2.551,2.5497,2.5479,2.5464,2.5423,2.5398,2.5389,2.5371,2.534,2.5312,2.5308,2.5296,2.5285,2.5282,2.5335,2.5341,2.5348,2.5357,2.5283,2.5283,2.5229,2.5228,2.5228]}]]